Home   Weather   Tallinn   Past weeks

Flag for Estonia Past Weather in Tallinn, Estonia — Yesterday and Last 2 Weeks

Now
25 °F

Low clouds.


Feels Like: 17 °F
Forecast: 28 / 35 °F
Wind: 7 mph from Southwest

Location: Tallinn

Current Time: Jan 17, 2017 at 9:18:54 am

Latest Report: Jan 17, 2017 at 8:20 am


Visibility: N/A

Pressure: 30.42 "Hg

Humidity: 93%

Dew Point: 23 °F

Location of TallinnLocation

Past Weather in Tallinn — Graph

°F

Tallinn Temperature Yesterday

Maximum temperature yesterday: 27 °F (at 12:20 am)
Minimum temperature yesterday: 23 °F (at 5:20 am)
Average temperature yesterday: 26 °F

High & Low Weather Summary for the Past Weeks

 TemperatureHumidityPressure
High36 °F (Jan 10, 6:50 am)100% (Jan 2, 4:20 pm)30.66 "Hg (Jan 2, 4:20 pm)
Low3 °F (Jan 6, 8:20 pm)63% (Jan 11, 8:20 pm)29.06 "Hg (Jan 13, 3:50 am)
Average24 °F89%29.82 "Hg
* Reported Jan 2 7:20 am — Jan 17 7:50 am, Tallinn, Weather by CustomWeather, © 2017

Note: Actual official high and low records may vary slightly from our data, if they occured in-between our weather recording intervals... More about our weather records

Advertising

Tallinn Weather History for the Previous 24 Hours

Scroll right to see more
 ConditionsComfort  
Time TempWeatherWind HumidityBarometerVisibility
7:50 am
Tue, Jan 17
25 °FLow clouds.8 mph93%30.42 "HgN/A
7:20 am25 °FLow clouds.8 mph93%30.39 "HgN/A
6:50 am25 °FOvercast.7 mph93%30.39 "HgN/A
6:20 am25 °FOvercast.9 mph86%30.39 "HgN/A
5:50 am25 °FOvercast.7 mph86%30.39 "HgN/A
5:20 am25 °FOvercast.5 mph86%30.39 "HgN/A
4:50 am25 °FLight snow. Mostly cloudy.7 mph86%30.39 "HgN/A
4:20 am25 °FMostly cloudy.6 mph86%30.39 "HgN/A
3:50 am25 °FMostly cloudy.8 mph86%30.39 "HgN/A
3:20 am25 °FMostly cloudy.7 mph86%30.39 "HgN/A
2:50 am25 °FLight snow. Mostly cloudy.9 mph86%30.36 "HgN/A
2:20 am25 °FOvercast.7 mph86%30.36 "HgN/A
1:50 am25 °FOvercast.5 mph86%30.36 "HgN/A
1:20 am25 °FOvercast.7 mph93%30.36 "HgN/A
12:50 am25 °FMostly cloudy.7 mph93%30.33 "HgN/A
12:20 am27 °FMostly cloudy.7 mph86%30.33 "HgN/A
11:50 pm
Mon, Jan 16
27 °FOvercast.3 mph86%30.33 "HgN/A
11:20 pm27 °FOvercast.6 mph86%30.33 "HgN/A
10:50 pm27 °FOvercast.5 mph93%30.30 "HgN/A
10:20 pm27 °FOvercast.5 mph93%30.30 "HgN/A
9:50 pm27 °FOvercast.6 mph93%30.30 "HgN/A
9:20 pm27 °FOvercast.3 mph93%30.30 "HgN/A
8:50 pm27 °FOvercast.5 mph86%30.30 "HgN/A
8:20 pm27 °FOvercast.5 mph86%30.27 "HgN/A
7:50 pm27 °FOvercast.5 mph93%30.27 "HgN/A
7:20 pm27 °FOvercast.3 mph86%30.27 "HgN/A
6:50 pm27 °FOvercast.3 mph86%30.27 "HgN/A
6:20 pm27 °FOvercast.1 mph86%30.24 "HgN/A
5:50 pm27 °FOvercast.3 mph86%30.24 "HgN/A
5:20 pm27 °FOvercast.2 mph86%30.24 "HgN/A
4:50 pm27 °FOvercast.3 mph86%30.24 "HgN/A
4:20 pm27 °FOvercast.1 mph86%30.21 "HgN/A
3:50 pm27 °FOvercast.1 mph86%30.21 "HgN/A
3:20 pm27 °FOvercast.2 mph86%30.21 "HgN/A
2:50 pm27 °FOvercast.3 mph86%30.18 "HgN/A
2:20 pm27 °FOvercast.3 mph86%30.18 "HgN/A
1:50 pm27 °FOvercast.3 mph86%30.18 "HgN/A
1:20 pm27 °FOvercast.5 mph86%30.18 "HgN/A
12:50 pm27 °FOvercast.5 mph86%30.15 "HgN/A
12:20 pm25 °FOvercast.6 mph93%30.15 "HgN/A
11:50 am25 °FOvercast.6 mph93%30.15 "HgN/A
11:20 am25 °FOvercast.5 mph86%30.15 "HgN/A
10:50 am25 °FOvercast.2 mph86%30.15 "HgN/A
10:20 am25 °FOvercast.6 mph93%30.12 "HgN/A
9:50 am25 °FOvercast.5 mph86%30.12 "HgN/A
9:20 am25 °FOvercast.5 mph93%30.09 "HgN/A
Weather by CustomWeather, © 2017

See weather overviewHow to use our weather pages